Simultaneous Nadir Overpasses (SNOs) Predictions

Prediction of SNOs between METOP-B and TERRA Satellite Orbit:

Table of predicted SNOs for the next 14.0 days since TLE Epoch: 8/16/2014
Index Date (METOP-B) Time (METOP-B) Lat,Lon (METOP-B) SZA (METOP-B ) Date (TERRA) Time (TERRA) Lat,Lon (TERRA) SZA (TERRA ) Distance(km) Time Diff (sec)
1 08/18/2014 09:39:36 81.33, 83.02 71.09 08/18/2014 09:40:23 81.34, 82.84 71.09 3.01 47
2 08/18/2014 10:30:17 -81.34,-109.50 108.88 08/18/2014 10:29:50 -81.33,-109.62 108.91 2.04 27
3 08/21/2014 05:13:57 81.33, 149.31 72.01 08/21/2014 05:14:39 81.34, 149.21 72.02 1.65 42
4 08/21/2014 06:04:38 -81.34, -43.18 107.96 08/21/2014 06:04:06 -81.33, -43.23 107.98 0.83 32
5 08/24/2014 00:48:19 81.33,-144.43 72.96 08/24/2014 00:48:56 81.33,-144.51 72.96 1.33 37
6 08/
